Weather History for KMCJ - January, 2013

Change the Weather History Date:

Saturday, January 12, 2013

  Actual Average (KHOU) Record (KHOU)
Temperature  
Mean Temperature 70 °F 53 °F  
Max Temperature 73 °F 63 °F 81 °F (2000)
Min Temperature 66 °F 43 °F 11 °F (1918)
Degree Days  
Heating Degree Days 0 13  
Month to date heating degree days 156  
Since 1 July heating degree days 695  
Cooling Degree Days 4    
Growing Degree Days 20 (Base 50)    
Moisture  
Dew Point 70 °F    
Average Humidity 93    
Maximum Humidity 100    
Minimum Humidity 83    
Precipitation  
Precipitation 0.02 in 0.11 in 2.27 in (1921)
Month to date precipitation 1.26  
Year to date precipitation 1.26  
Sea Level Pressure  
Sea Level Pressure 29.78 in    
Wind  
Wind Speed 14 mph (South)    
Max Wind Speed 24 mph    
Max Gust Speed 34 mph    
Visibility 3 miles    
Events      
T = Trace of Precipitation, MM = Missing Value Source: NWS Daily Summary

Daily Weather History Graph

Daily Weather History Graph

Search for Another Location

Airport or City:

Trip Planner

Search our weather history database for the weather conditions in past years. The results will help you decide how hot, cold, wet, or windy it might be!

Date:

Astronomy

Jan. 12, 2013 Rise Set
Actual Time 7:17 AM CST 5:42 PM CST
Civil Twilight 6:52 AM CST 6:08 PM CST
Nautical Twilight 6:22 AM CST 6:37 PM CST
Astronomical Twilight 5:53 AM CST 7:06 PM CST
Moon 7:44 AM CST (1/12) 7:03 PM CST (1/12)
Length of Visible Light 11h 16m
Length of Day
10h 24m
New Moon, 1% of the Moon is Illuminated
Jan 12
New Moon
Jan 18
First Quarter
Jan 26
Full
Feb 3
Last Quarter
Feb 10
New

Hourly Weather History & Observations

Time (CST) Temp. Dew Point Humidity Pressure Visibility Wind Dir Wind Speed Gust Speed Precip Events Conditions
12:15 AM 66.2 °F 66.2 °F 100% 29.86 in 0.2 mi South 9.2 mph - N/A   Overcast
12:35 AM 66.2 °F 66.2 °F 100% 29.86 in 0.2 mi South 10.4 mph - 0.01 in   Overcast
12:55 AM 66.2 °F 66.2 °F 100% 29.86 in 0.2 mi South 9.2 mph - 0.01 in   Overcast
1:15 AM 68.0 °F 68.0 °F 100% 29.86 in 0.2 mi South 9.2 mph - N/A   Overcast
1:35 AM 68.0 °F 68.0 °F 100% 29.86 in 0.2 mi South 9.2 mph - N/A   Overcast
1:55 AM 71.6 °F 71.6 °F 100% 29.85 in 0.2 mi South 15.0 mph 20.7 mph N/A   Overcast
2:15 AM 71.6 °F 71.6 °F 100% 29.84 in 1.5 mi South 13.8 mph - N/A   Overcast
2:35 AM 71.6 °F 71.6 °F 100% 29.84 in 2.5 mi South 12.7 mph 18.4 mph N/A   Overcast
2:55 AM 71.6 °F 71.6 °F 100% 29.84 in 2.5 mi South 15.0 mph 21.9 mph N/A   Overcast
3:15 AM 71.6 °F 71.6 °F 100% 29.84 in 2.5 mi South 10.4 mph 18.4 mph N/A   Overcast
3:35 AM 71.6 °F 71.6 °F 100% 29.85 in 3.0 mi South 12.7 mph 18.4 mph N/A   Overcast
3:55 AM 71.6 °F 71.6 °F 100% 29.85 in 2.5 mi SSW 8.1 mph 16.1 mph N/A   Overcast
4:15 AM 71.6 °F 71.6 °F 100% 29.83 in 3.0 mi South 12.7 mph 19.6 mph N/A   Overcast
4:35 AM 71.6 °F 71.6 °F 100% 29.81 in 2.5 mi South 15.0 mph 21.9 mph N/A   Overcast
4:55 AM 71.6 °F 71.6 °F 100% 29.80 in 3.0 mi South 15.0 mph 24.2 mph N/A   Overcast
5:15 AM 71.6 °F 71.6 °F 100% 29.80 in 4.0 mi South 18.4 mph 25.3 mph N/A   Overcast
5:35 AM 71.6 °F 71.6 °F 100% 29.79 in 4.0 mi South 17.3 mph 25.3 mph N/A   Overcast
5:55 AM 71.6 °F 71.6 °F 100% 29.79 in 5.0 mi South 17.3 mph 26.5 mph 0.01 in   Overcast
6:15 AM 71.6 °F 71.6 °F 100% 29.80 in 5.0 mi South 18.4 mph 31.1 mph N/A   Overcast
6:35 AM 71.6 °F 71.6 °F 100% 29.82 in 5.0 mi South 16.1 mph 27.6 mph N/A   Overcast
6:55 AM 71.6 °F 71.6 °F 100% 29.81 in 5.0 mi South 20.7 mph 26.5 mph N/A   Overcast
7:15 AM 71.6 °F 69.8 °F 94% 29.82 in 5.0 mi South 17.3 mph 24.2 mph N/A   Overcast
7:35 AM 71.6 °F 69.8 °F 94% 29.82 in 4.0 mi South 20.7 mph 31.1 mph N/A   Mostly Cloudy
7:55 AM 71.6 °F 69.8 °F 94% 29.83 in 4.0 mi South 12.7 mph 23.0 mph N/A   Overcast
8:15 AM 71.6 °F 69.8 °F 94% 29.83 in 3.0 mi South 16.1 mph 21.9 mph N/A   Overcast
8:35 AM 71.6 °F 69.8 °F 94% 29.83 in 3.0 mi South 15.0 mph 23.0 mph N/A   Overcast
8:55 AM 71.6 °F 69.8 °F 94% 29.84 in 3.0 mi South 20.7 mph 25.3 mph N/A   Overcast
9:15 AM 71.6 °F 69.8 °F 94% 29.84 in 4.0 mi South 19.6 mph 24.2 mph N/A   Overcast
9:35 AM 71.6 °F 69.8 °F 94% 29.85 in 4.0 mi South 15.0 mph 27.6 mph N/A   Overcast
9:55 AM 73.4 °F 69.8 °F 88% 29.85 in 4.0 mi South 21.9 mph 28.8 mph N/A   Overcast
10:15 AM 73.4 °F 69.8 °F 88% 29.85 in 4.0 mi South 19.6 mph 26.5 mph N/A   Overcast
10:35 AM 73.4 °F 69.8 °F 88% 29.83 in 2.0 mi South 24.2 mph 29.9 mph N/A   Overcast
10:55 AM 71.6 °F 69.8 °F 94% 29.82 in 3.0 mi South 20.7 mph 28.8 mph N/A   Overcast
11:15 AM 73.4 °F 69.8 °F 88% 29.81 in 4.0 mi South 18.4 mph 28.8 mph N/A   Overcast
11:35 AM 73.4 °F 69.8 °F 88% 29.80 in 4.0 mi SSE 18.4 mph 29.9 mph N/A   Overcast
11:55 AM 73.4 °F 69.8 °F 88% 29.78 in 4.0 mi South 24.2 mph 32.2 mph N/A   Overcast
12:15 PM 73.4 °F 69.8 °F 88% 29.78 in 4.0 mi South 21.9 mph 34.5 mph N/A   Overcast
12:35 PM 73.4 °F 69.8 °F 88% 29.78 in 4.0 mi South 13.8 mph 25.3 mph N/A   Overcast
12:55 PM 73.4 °F 69.8 °F 88% 29.76 in 4.0 mi South 17.3 mph 27.6 mph N/A   Overcast
1:15 PM 73.4 °F 69.8 °F 88% 29.75 in 4.0 mi South 17.3 mph 32.2 mph N/A   Overcast
1:35 PM 73.4 °F 68.0 °F 83% 29.75 in 4.0 mi South 19.6 mph 28.8 mph N/A   Overcast
1:55 PM 73.4 °F 69.8 °F 88% 29.74 in 4.0 mi South 18.4 mph 31.1 mph N/A   Overcast
2:15 PM 73.4 °F 68.0 °F 83% 29.74 in 4.0 mi South 19.6 mph 32.2 mph N/A   Overcast
2:35 PM 73.4 °F 68.0 °F 83% 29.73 in 5.0 mi South 19.6 mph 29.9 mph N/A   Mostly Cloudy
2:55 PM 73.4 °F 68.0 °F 83% 29.72 in 4.0 mi South 17.3 mph 27.6 mph N/A   Overcast
3:15 PM 73.4 °F 68.0 °F 83% 29.73 in 4.0 mi South 20.7 mph 29.9 mph N/A   Overcast
3:35 PM 73.4 °F 68.0 °F 83% 29.72 in 4.0 mi South 19.6 mph 27.6 mph N/A   Overcast
3:55 PM 73.4 °F 68.0 °F 83% 29.72 in 4.0 mi South 20.7 mph 26.5 mph N/A   Mostly Cloudy
4:15 PM 73.4 °F 68.0 °F 83% 29.71 in 4.0 mi South 23.0 mph 29.9 mph N/A   Mostly Cloudy
4:35 PM 73.4 °F 68.0 °F 83% 29.71 in 4.0 mi South 18.4 mph 26.5 mph N/A   Overcast
4:55 PM 73.4 °F 68.0 °F 83% 29.70 in 3.0 mi South 21.9 mph 29.9 mph N/A   Mostly Cloudy
5:15 PM 73.4 °F 69.8 °F 88% 29.72 in 3.0 mi South 11.5 mph 32.2 mph N/A   Overcast
5:35 PM 73.4 °F 69.8 °F 88% 29.71 in 3.0 mi South 16.1 mph 28.8 mph N/A   Overcast
6:15 PM 73.4 °F 69.8 °F 88% 29.71 in 4.0 mi South 13.8 mph 29.9 mph N/A   Overcast
6:35 PM 73.4 °F 69.8 °F 88% 29.75 in 3.0 mi SW 3.5 mph 16.1 mph N/A   Overcast
6:55 PM 71.6 °F 69.8 °F 94% 29.70 in 1.5 mi South 13.8 mph 21.9 mph N/A   Overcast
7:15 PM 71.6 °F 71.6 °F 100% 29.72 in 2.5 mi SW 8.1 mph - N/A   Overcast
7:35 PM 71.6 °F 71.6 °F 100% 29.71 in 3.0 mi South 10.4 mph 17.3 mph N/A   Overcast
7:55 PM 71.6 °F 71.6 °F 100% 29.72 in 2.5 mi SW 4.6 mph - N/A   Overcast
8:15 PM 71.6 °F 71.6 °F 100% 29.73 in 2.5 mi WSW 5.8 mph - N/A   Overcast
8:35 PM 71.6 °F 71.6 °F 100% 29.72 in 3.0 mi South 11.5 mph - N/A   Overcast
8:55 PM 71.6 °F 71.6 °F 100% 29.74 in 3.0 mi SW 4.6 mph - N/A   Overcast
9:15 PM 71.6 °F 71.6 °F 100% 29.73 in 3.0 mi South 5.8 mph - N/A   Overcast
9:35 PM 71.6 °F 71.6 °F 100% 29.73 in 4.0 mi South 8.1 mph - N/A   Mostly Cloudy
9:55 PM 71.6 °F 71.6 °F 100% 29.73 in 5.0 mi South 10.4 mph - N/A   Mostly Cloudy
10:15 PM 73.4 °F 69.8 °F 88% 29.74 in 5.0 mi South 8.1 mph - N/A   Mostly Cloudy
10:35 PM 73.4 °F 68.0 °F 83% 29.75 in 5.0 mi SW 5.8 mph - N/A   Overcast
10:55 PM 73.4 °F 68.0 °F 83% 29.75 in 5.0 mi South 8.1 mph - N/A   Overcast
11:15 PM 73.4 °F 68.0 °F 83% 29.74 in 5.0 mi South 12.7 mph 16.1 mph N/A   Overcast
11:35 PM 73.4 °F 68.0 °F 83% 29.75 in 5.0 mi South 4.6 mph - N/A   Mostly Cloudy